User: anonymous   Login
Location: Krasnoyarskiy Pitomnik
(51.1333°N, 71.6167°E)
Time: 19:18:49
(UTC+00:00)
Language:

SR - Orbit

View from above orbital plane
View from above orbital plane
View from above satellite
View from above satellite

Ground track
Ground track

The orbit data is extracted from the following two-line orbital elements,

1    46U 60007B   24110.50422329  .00005361  00000-0  10432-2 0  9995
2    46  66.6909 214.1370 0201223 167.0923 193.5450 14.51732303342368
Epoch (UTC): 19 April 2024 12:06:04
Eccentricity: 0.0201223
inclination: 66.6909°
perigee height: 577 km
apogee height: 863 km
right ascension of ascending node: 214.1370°
argument of perigee: 167.0923°
revolutions per day: 14.51732303
mean anomaly at epoch: 193.5450°
orbit number at epoch: 34236

The dashed part of the orbit path shows where the satellite is in the earth's shadow,  

DLR